| time (UTC) | temp C | wind direction | speed KPH | gust KPH | rain 1hr cm | rain 24hr cm | rain mn cm | humidity % | barometer mb |
| 20260510030036 | 7 | 0 | 0.0 | 0.0 | 0.00 | 0.84 | 0.84 | 69 | 1010.5 |
| 20260510024530 | 8 | 0 | 0.0 | 0.0 | 0.00 | 0.84 | 0.84 | 69 | 1010.6 |
| 20260510023028 | 8 | 0 | 0.0 | 0.0 | 0.00 | 0.84 | 0.84 | 69 | 1010.4 |
| 20260510021532 | 8 | 0 | 0.0 | 0.0 | 0.00 | 0.84 | 0.84 | 69 | 1010.2 |
| 20260510020028 | 8 | 0 | 0.0 | 0.0 | 0.00 | 0.84 | 0.84 | 68 | 1010.4 |
| 20260510014528 | 8 | 0 | 0.0 | 0.0 | 0.00 | 0.84 | 0.84 | 68 | 1010.2 |
| 20260510013030 | 8 | 0 | 0.0 | 0.0 | 0.00 | 0.84 | 0.84 | 68 | 1010.3 |
| 20260510011530 | 8 | 0 | 0.0 | 0.0 | 0.00 | 0.84 | 0.84 | 67 | 1010.1 |
| 20260510010030 | 9 | 0 | 0.0 | 0.0 | 0.00 | 0.84 | 0.84 | 66 | 1010.0 |
| 20260510004528 | 10 | 0 | 0.0 | 0.0 | 0.00 | 0.84 | 0.84 | 66 | 1009.7 |
| 20260510003031 | 10 | 0 | 0.0 | 0.0 | 0.00 | 0.84 | 0.84 | 67 | 1009.6 |
| 20260510001530 | 10 | 0 | 0.0 | 0.0 | 0.00 | 0.84 | 0.84 | 68 | 1009.7 |
| 20260510000030 | 11 | 0 | 0.0 | 0.0 | 0.00 | 0.84 | 0.84 | 68 | 1009.4 |
| 20260509234533 | 11 | 0 | 0.0 | 0.0 | 0.00 | 0.84 | 0.84 | 68 | 1009.2 |
| 20260509233030 | 11 | 0 | 0.0 | 0.0 | 0.00 | 0.84 | 0.84 | 68 | 1009.2 |
| 20260509231528 | 12 | 0 | 0.0 | 0.0 | 0.00 | 0.84 | 0.84 | 68 | 1009.0 |
| 20260509230033 | 12 | 0 | 0.0 | 0.0 | 0.00 | 0.84 | 0.84 | 67 | 1009.1 |
| 20260509224529 | 13 | 0 | 0.0 | 1.6 | 0.00 | 0.84 | 0.84 | 66 | 1009.2 |
| 20260509223028 | 13 | 0 | 0.0 | 1.6 | 0.00 | 0.84 | 0.84 | 66 | 1009.1 |
| 20260509221533 | 13 | 0 | 0.0 | 1.6 | 0.00 | 0.84 | 0.84 | 67 | 1009.1 |
| 20260509220032 | 13 | 0 | 0.0 | 1.6 | 0.00 | 0.84 | 0.84 | 66 | 1009.2 |
| 20260509214532 | 13 | 124 | 0.0 | 1.6 | 0.00 | 0.84 | 0.84 | 67 | 1009.3 |
| 20260509213029 | 13 | 0 | 0.0 | 0.0 | 0.00 | 0.84 | 0.84 | 66 | 1009.4 |
| 20260509211530 | 13 | 0 | 0.0 | 1.6 | 0.00 | 0.84 | 0.84 | 66 | 1009.3 |
| 20260509210046 | 13 | 0 | 0.0 | 1.6 | 0.00 | 0.84 | 0.84 | 65 | 1009.4 |
| 20260509204530 | 13 | 0 | 0.0 | 1.6 | 0.00 | 0.84 | 0.84 | 65 | 1009.5 |
| 20260509203034 | 13 | 0 | 0.0 | 1.6 | 0.00 | 0.84 | 0.84 | 65 | 1009.6 |
| 20260509201532 | 12 | 0 | 0.0 | 1.6 | 0.03 | 0.84 | 0.84 | 64 | 1009.7 |
| 20260509200031 | 12 | 0 | 0.0 | 1.6 | 0.08 | 0.84 | 0.84 | 64 | 1009.9 |
| 20260509194530 | 12 | 0 | 0.0 | 0.0 | 0.13 | 0.86 | 0.84 | 65 | 1010.1 |
| 20260509193028 | 12 | 200 | 0.0 | 1.6 | 0.20 | 0.86 | 0.84 | 65 | 1010.1 |
| 20260509191528 | 11 | 0 | 0.0 | 0.0 | 0.20 | 0.84 | 0.81 | 66 | 1010.2 |
| 20260509190035 | 11 | 0 | 0.0 | 0.0 | 0.20 | 0.79 | 0.76 | 67 | 1010.6 |
| 20260509184535 | 11 | 0 | 0.0 | 0.0 | 0.15 | 0.71 | 0.69 | 67 | 1010.9 |
| 20260509183028 | 11 | 0 | 0.0 | 0.0 | 0.18 | 0.66 | 0.64 | 67 | 1010.9 |
| 20260509181528 | 11 | 0 | 0.0 | 0.0 | 0.23 | 0.64 | 0.61 | 67 | 1010.8 |
| 20260509180027 | 11 | 0 | 0.0 | 0.0 | 0.23 | 0.58 | 0.56 | 67 | 1011.0 |
| 20260509174527 | 11 | 0 | 0.0 | 0.0 | 0.28 | 0.56 | 0.53 | 67 | 1011.0 |
| 20260509173054 | 11 | 0 | 0.0 | 0.0 | 0.23 | 0.46 | 0.43 | 68 | 1011.1 |
| 20260509171535 | 11 | 0 | 0.0 | 1.6 | 0.20 | 0.41 | 0.38 | 68 | 1011.1 |
| 20260509170028 | 11 | 216 | 0.0 | 3.2 | 0.20 | 0.36 | 0.33 | 69 | 1011.4 |
| 20260509164530 | 11 | 0 | 0.0 | 1.6 | 0.15 | 0.28 | 0.25 | 68 | 1011.2 |
| 20260509163029 | 12 | 231 | 0.0 | 4.8 | 0.10 | 0.23 | 0.20 | 67 | 1011.4 |
| 20260509161531 | 12 | 0 | 0.0 | 3.2 | 0.10 | 0.20 | 0.18 | 67 | 1011.3 |
| 20260509160030 | 12 | 0 | 0.0 | 1.6 | 0.05 | 0.15 | 0.13 | 67 | 1011.5 |
| 20260509154528 | 12 | 103 | 0.0 | 1.6 | 0.03 | 0.13 | 0.10 | 66 | 1011.6 |
| 20260509153033 | 12 | 169 | 0.0 | 1.6 | 0.03 | 0.13 | 0.10 | 66 | 1011.7 |
| 20260509151530 | 11 | 0 | 0.0 | 0.0 | 0.00 | 0.10 | 0.08 | 69 | 1011.9 |
| 20260509150032 | 11 | 0 | 0.0 | 1.6 | 0.00 | 0.10 | 0.08 | 68 | 1011.6 |
| 20260509144530 | 11 | 0 | 0.0 | 0.0 | 0.03 | 0.10 | 0.08 | 68 | 1011.1 |
| 20260509143030 | 11 | 0 | 0.0 | 1.6 | 0.05 | 0.10 | 0.08 | 69 | 1011.1 |
| 20260509141532 | 11 | 0 | 0.0 | 1.6 | 0.05 | 0.10 | 0.08 | 69 | 1011.3 |
| 20260509140030 | 10 | 0 | 0.0 | 1.6 | 0.05 | 0.10 | 0.08 | 68 | 1011.6 |
| 20260509134530 | 10 | 210 | 0.0 | 1.6 | 0.05 | 0.08 | 0.05 | 69 | 1011.6 |
| 20260509133031 | 11 | 0 | 0.0 | 1.6 | 0.03 | 0.05 | 0.03 | 67 | 1011.1 |
| 20260509131537 | 11 | 0 | 0.0 | 1.6 | 0.03 | 0.05 | 0.03 | 66 | 1011.0 |
| 20260509130053 | 11 | 0 | 0.0 | 1.6 | 0.03 | 0.05 | 0.03 | 66 | 1010.9 |
| 20260509124534 | 10 | 0 | 0.0 | 1.6 | 0.00 | 0.03 | 0.00 | 65 | 1011.0 |
| 20260509123046 | 10 | 227 | 0.0 | 1.6 | 0.00 | 0.03 | 0.00 | 65 | 1011.3 |
| 20260509121540 | 10 | 103 | 0.0 | 1.6 | 0.00 | 0.03 | 0.00 | 65 | 1011.3 |
| 20260509120037 | 9 | 0 | 0.0 | 0.0 | 0.00 | 0.03 | 0.00 | 65 | 1011.5 |
| 20260509114530 | 8 | 0 | 0.0 | 1.6 | 0.00 | 0.03 | 0.00 | 66 | 1011.3 |
| 20260509113045 | 8 | 0 | 0.0 | 0.0 | 0.00 | 0.03 | 0.00 | 67 | 1011.1 |
| 20260509111555 | 8 | 0 | 0.0 | 0.0 | 0.00 | 0.03 | 0.00 | 67 | 1011.2 |
| 20260509110031 | 8 | 0 | 0.0 | 1.6 | 0.00 | 0.03 | 0.00 | 67 | 1011.4 |
| 20260509104531 | 8 | 128 | 0.0 | 1.6 | 0.00 | 0.03 | 0.00 | 67 | 1011.0 |
| 20260509103142 | 7 | 0 | 0.0 | 1.6 | 0.00 | 0.03 | 0.00 | 67 | 1010.7 |
| 20260509101545 | 7 | 0 | 0.0 | 0.0 | 0.00 | 0.03 | 0.00 | 67 | 1010.6 |
| 20260509100028 | 7 | 0 | 0.0 | 0.0 | 0.00 | 0.03 | 0.00 | 67 | 1010.9 |
| 20260509094533 | 7 | 0 | 0.0 | 0.0 | 0.00 | 0.03 | 0.00 | 67 | 1011.0 |
| 20260509093034 | 7 | 0 | 0.0 | 0.0 | 0.00 | 0.03 | 0.00 | 67 | 1011.0 |
| 20260509091531 | 7 | 0 | 0.0 | 0.0 | 0.00 | 0.03 | 0.00 | 67 | 1011.0 |
| 20260509090032 | 7 | 0 | 0.0 | 0.0 | 0.00 | 0.03 | 0.00 | 67 | 1011.2 |
| 20260509084531 | 7 | 0 | 0.0 | 0.0 | 0.00 | 0.03 | 0.00 | 66 | 1011.2 |
| 20260509083030 | 7 | 0 | 0.0 | 0.0 | 0.00 | 0.03 | 0.00 | 66 | 1011.5 |
| 20260509081528 | 7 | 0 | 0.0 | 0.0 | 0.00 | 0.03 | 0.00 | 67 | 1011.5 |
| 20260509080030 | 7 | 0 | 0.0 | 0.0 | 0.00 | 0.03 | 0.00 | 68 | 1011.7 |
| 20260509074530 | 7 | 0 | 0.0 | 0.0 | 0.00 | 0.03 | 0.00 | 68 | 1011.6 |
| 20260509073031 | 8 | 0 | 0.0 | 0.0 | 0.00 | 0.03 | 0.00 | 68 | 1011.7 |
| 20260509071530 | 8 | 0 | 0.0 | 0.0 | 0.00 | 0.03 | 0.00 | 68 | 1011.6 |
| 20260509070028 | 8 | 0 | 0.0 | 1.6 | 0.00 | 0.03 | 0.00 | 68 | 1011.9 |
| 20260509064528 | 8 | 0 | 0.0 | 0.0 | 0.00 | 0.03 | 0.00 | 70 | 1012.0 |
| 20260509063034 | 8 | 0 | 0.0 | 0.0 | 0.00 | 0.03 | 0.00 | 70 | 1012.0 |
| 20260509061531 | 8 | 0 | 0.0 | 1.6 | 0.00 | 0.03 | 0.00 | 70 | 1011.9 |
| 20260509060031 | 8 | 0 | 0.0 | 0.0 | 0.00 | 0.03 | 0.00 | 70 | 1011.7 |
| 20260509054537 | 8 | 0 | 0.0 | 0.0 | 0.00 | 0.10 | 0.00 | 71 | 1011.7 |
| 20260509053032 | 8 | 0 | 0.0 | 0.0 | 0.00 | 0.10 | 0.00 | 71 | 1012.1 |
| 20260509051531 | 8 | 0 | 0.0 | 0.0 | 0.00 | 0.10 | 0.00 | 71 | 1012.7 |
| 20260509050031 | 8 | 0 | 0.0 | 0.0 | 0.00 | 0.10 | 0.00 | 70 | 1012.9 |
| 20260509044529 | 8 | 0 | 0.0 | 0.0 | 0.00 | 0.10 | 0.00 | 70 | 1012.9 |
| 20260509043028 | 8 | 0 | 0.0 | 1.6 | 0.00 | 0.10 | 0.00 | 70 | 1012.6 |
| 20260509041530 | 8 | 0 | 0.0 | 0.0 | 0.00 | 0.10 | 0.00 | 70 | 1012.3 |
| 20260509040044 | 8 | 0 | 0.0 | 0.0 | 0.00 | 0.10 | 0.00 | 70 | 1012.0 |
| 20260509034530 | 8 | 0 | 0.0 | 0.0 | 0.00 | 0.10 | 0.10 | 70 | 1012.2 |
| 20260509033030 | 8 | 0 | 0.0 | 0.0 | 0.00 | 0.10 | 0.10 | 69 | 1012.2 |
| 20260509031532 | 8 | 0 | 0.0 | 0.0 | 0.00 | 0.10 | 0.10 | 69 | 1012.6 |